Weather History for Coeur d'Alene, ID

Change the Weather History Date:

Wednesday, February 8, 2012

  Actual Average Record
Temperature  
Mean Temperature 28 °F -  
Max Temperature 33 °F 35 °F 48 °F (1998)
Min Temperature 24 °F 22 °F 0 °F (2001)
Degree Days  
Heating Degree Days 36    
Moisture  
Dew Point 22 °F    
Average Humidity 74    
Maximum Humidity 93    
Minimum Humidity 60    
Precipitation  
Precipitation 0.00 in - - ()
Sea Level Pressure  
Sea Level Pressure 30.22 in    
Wind  
Wind Speed 8 mph (NE)    
Max Wind Speed 13 mph    
Max Gust Speed -    
Visibility 9 miles    
Events      
Averages and records for this station are not official NWS values.
T = Trace of Precipitation, MM = Missing Value Source: NWS Daily Summary

Daily Weather History Graph

Daily Weather History Graph

Search for Another Location

Airport:

Trip Planner

Search our weather history database for the weather conditions in past years. The results will help you decide how hot, cold, wet, or windy it might be!

Date:

Astronomy

Feb. 08, 2012 Rise Set
Actual Time 7:05 AM PST 4:58 PM PST
Civil Twilight 6:32 AM PST 5:31 PM PST
Nautical Twilight 5:55 AM PST 6:07 PM PST
Astronomical Twilight 5:20 AM PST 6:43 PM PST
Moon 6:33 PM PST (2/8) 7:02 AM PST (2/8)
Length of Visible Light 10h 58m
Length of Day
9h 53m
Full, 99% of the Moon is Illuminated
Feb 8
Full
Feb 14
Last Quarter
Feb 21
New
Feb 29
First Quarter
Mar 8
Full

Hourly Weather History & Observations

Time (PST) Temp. Windchill Dew Point Humidity Pressure Visibility Wind Dir Wind Speed Gust Speed Precip Events Conditions
12:15 AM 28.4 °F 19.7 °F 17.6 °F 64% 30.10 in 10.0 mi NE 9.2 mph - N/A   Clear
12:35 AM 26.6 °F 18.2 °F 17.6 °F 69% 30.10 in 10.0 mi ENE 8.1 mph - N/A   Clear
12:55 AM 26.6 °F 19.1 °F 19.4 °F 74% 30.10 in 10.0 mi East 6.9 mph - N/A   Clear
1:15 AM 26.6 °F 17.5 °F 17.6 °F 69% 30.11 in 10.0 mi NE 9.2 mph - N/A   Clear
1:35 AM 28.4 °F 20.4 °F 17.6 °F 64% 30.12 in 10.0 mi NE 8.1 mph - N/A   Clear
1:55 AM 26.6 °F 18.2 °F 17.6 °F 69% 30.13 in 10.0 mi NE 8.1 mph - N/A   Clear
2:15 AM 24.8 °F 16.9 °F 17.6 °F 74% 30.14 in 10.0 mi ENE 6.9 mph - N/A   Clear
2:35 AM 24.8 °F 15.3 °F 17.6 °F 74% 30.14 in 10.0 mi East 9.2 mph - N/A   Clear
2:55 AM 24.8 °F 15.3 °F 17.6 °F 74% 30.14 in 10.0 mi East 9.2 mph - N/A   Scattered Clouds
3:15 AM 26.6 °F 17.5 °F 17.6 °F 69% 30.15 in 10.0 mi ENE 9.2 mph - N/A   Mostly Cloudy
3:35 AM 26.6 °F 16.2 °F 17.6 °F 69% 30.15 in 10.0 mi ENE 11.5 mph - N/A   Scattered Clouds
3:55 AM 26.6 °F 17.5 °F 17.6 °F 69% 30.16 in 10.0 mi East 9.2 mph - N/A   Scattered Clouds
4:15 AM 26.6 °F 18.2 °F 17.6 °F 69% 30.16 in 10.0 mi East 8.1 mph - N/A   Overcast
4:35 AM 26.6 °F 18.2 °F 17.6 °F 69% 30.16 in 10.0 mi ENE 8.1 mph - N/A   Overcast
4:55 AM 26.6 °F 17.5 °F 17.6 °F 69% 30.17 in 10.0 mi NE 9.2 mph - N/A   Overcast
5:15 AM 28.4 °F 19.1 °F 17.6 °F 64% 30.17 in 10.0 mi NE 10.4 mph - N/A   Overcast
5:35 AM 28.4 °F 20.4 °F 17.6 °F 64% 30.17 in 10.0 mi ENE 8.1 mph - N/A   Overcast
5:55 AM 28.4 °F 19.7 °F 19.4 °F 69% 30.17 in 10.0 mi ENE 9.2 mph - N/A   Overcast
6:15 AM 28.4 °F 20.4 °F 19.4 °F 69% 30.17 in 10.0 mi ENE 8.1 mph - N/A   Overcast
6:35 AM 28.4 °F 19.7 °F 19.4 °F 69% 30.17 in 10.0 mi NE 9.2 mph - N/A   Overcast
6:55 AM 28.4 °F 19.1 °F 19.4 °F 69% 30.17 in 10.0 mi NE 10.4 mph - N/A   Overcast
7:15 AM 28.4 °F 19.1 °F 19.4 °F 69% 30.18 in 10.0 mi NE 10.4 mph - N/A   Overcast
7:35 AM 30.2 °F 21.3 °F 19.4 °F 64% 30.19 in 10.0 mi NNE 10.4 mph - N/A   Overcast
7:55 AM 30.2 °F 21.3 °F 19.4 °F 64% 30.19 in 10.0 mi NE 10.4 mph - N/A   Overcast
8:15 AM 30.2 °F 20.8 °F 19.4 °F 64% 30.20 in 10.0 mi NE 11.5 mph - N/A   Overcast
8:35 AM 30.2 °F 20.8 °F 21.2 °F 69% 30.21 in 10.0 mi NE 11.5 mph - N/A   Overcast
8:55 AM 30.2 °F 21.3 °F 21.2 °F 69% 30.21 in 10.0 mi NE 10.4 mph - N/A   Overcast
9:15 AM 32.0 °F 22.5 °F 21.2 °F 64% 30.22 in 10.0 mi NE 12.7 mph - N/A   Overcast
9:35 AM 32.0 °F 23.6 °F 21.2 °F 64% 30.23 in 10.0 mi NNE 10.4 mph - N/A   Mostly Cloudy
9:55 AM 33.8 °F 25.3 °F 21.2 °F 60% 30.23 in 10.0 mi NE 11.5 mph - N/A   Mostly Cloudy
10:15 AM 32.0 °F 24.2 °F 21.2 °F 64% 30.24 in 10.0 mi NE 9.2 mph - N/A   Overcast
10:35 AM 33.8 °F 26.4 °F 21.2 °F 60% 30.24 in 10.0 mi ENE 9.2 mph - N/A   Overcast
10:55 AM 33.8 °F 27.7 °F 21.2 °F 60% 30.25 in 10.0 mi NE 6.9 mph - N/A   Overcast
11:15 AM 33.8 °F 28.6 °F 21.2 °F 60% 30.25 in 10.0 mi NE 5.8 mph - N/A   Overcast
11:35 AM 33.8 °F 29.6 °F 21.2 °F 60% 30.26 in 10.0 mi NNE 4.6 mph - N/A   Overcast
11:55 AM 33.8 °F 29.6 °F 21.2 °F 60% 30.27 in 10.0 mi NE 4.6 mph - N/A   Overcast
12:15 PM 33.8 °F 28.6 °F 23.0 °F 65% 30.26 in 5.0 mi NE 5.8 mph - N/A   Overcast
12:35 PM 33.8 °F 29.6 °F 24.8 °F 70% 30.26 in 9.0 mi NE 4.6 mph - N/A   Overcast
12:55 PM 32.0 °F 26.4 °F 24.8 °F 75% 30.26 in 2.5 mi NNE 5.8 mph - N/A   Overcast
1:15 PM 32.0 °F 25.6 °F 26.6 °F 80% 30.27 in 5.0 mi North 6.9 mph - N/A   Overcast
1:35 PM 30.2 °F 22.6 °F 26.6 °F 86% 30.27 in 8.0 mi NNE 8.1 mph - N/A   Overcast
1:55 PM 30.2 °F 22.6 °F 26.6 °F 86% 30.27 in 1.5 mi NNE 8.1 mph - N/A   Overcast
2:15 PM 30.2 °F 23.4 °F 28.4 °F 93% 30.27 in 2.0 mi NNE 6.9 mph - N/A   Overcast
2:35 PM 30.2 °F 22.6 °F 28.4 °F 93% 30.27 in 5.0 mi NNE 8.1 mph - N/A   Overcast
2:55 PM 30.2 °F 23.4 °F 28.4 °F 93% 30.27 in 10.0 mi NNE 6.9 mph - N/A   Overcast
3:15 PM 30.2 °F 22.6 °F 26.6 °F 86% 30.27 in 10.0 mi NNE 8.1 mph - N/A   Overcast
3:35 PM 32.0 °F 24.8 °F 28.4 °F 87% 30.28 in 10.0 mi NNE 8.1 mph - N/A   Overcast
3:55 PM 32.0 °F 26.4 °F 26.6 °F 80% 30.28 in 10.0 mi NE 5.8 mph - N/A   Overcast
4:15 PM 30.2 °F 22.6 °F 28.4 °F 93% 30.28 in 10.0 mi NE 8.1 mph - N/A   Overcast
4:35 PM 30.2 °F 23.4 °F 26.6 °F 86% 30.28 in 10.0 mi NNE 6.9 mph - N/A   Overcast
4:55 PM 30.2 °F 23.4 °F 26.6 °F 86% 30.28 in 10.0 mi NE 6.9 mph - N/A   Overcast
5:15 PM 30.2 °F 23.4 °F 26.6 °F 86% 30.29 in 10.0 mi NE 6.9 mph - N/A   Overcast
5:35 PM 30.2 °F 24.3 °F 26.6 °F 86% 30.28 in 10.0 mi NE 5.8 mph - N/A   Overcast
5:55 PM 30.2 °F 23.4 °F 26.6 °F 86% 30.28 in 10.0 mi ENE 6.9 mph - N/A   Overcast
6:15 PM 30.2 °F 23.4 °F 26.6 °F 86% 30.28 in 10.0 mi NE 6.9 mph - N/A   Overcast
6:35 PM 30.2 °F 25.4 °F 26.6 °F 86% 30.28 in 10.0 mi NE 4.6 mph - N/A   Overcast
6:55 PM 30.2 °F 25.4 °F 26.6 °F 86% 30.28 in 10.0 mi ENE 4.6 mph - N/A   Overcast
7:15 PM 30.2 °F 23.4 °F 26.6 °F 86% 30.29 in 10.0 mi NNE 6.9 mph - N/A   Overcast
7:35 PM 30.2 °F 23.4 °F 26.6 °F 86% 30.28 in 8.0 mi NNE 6.9 mph - N/A   Overcast
7:55 PM 30.2 °F 23.4 °F 26.6 °F 86% 30.28 in 6.0 mi NE 6.9 mph - N/A   Overcast
8:15 PM 30.2 °F 24.3 °F 26.6 °F 86% 30.28 in 8.0 mi ENE 5.8 mph - N/A   Overcast
8:35 PM 30.2 °F 23.4 °F 28.4 °F 93% 30.28 in 5.0 mi NNE 6.9 mph - N/A   Overcast
8:55 PM 30.2 °F 24.3 °F 28.4 °F 93% 30.30 in 5.0 mi NNE 5.8 mph - N/A   Overcast
9:15 PM 30.2 °F 25.4 °F 28.4 °F 93% 30.31 in 2.5 mi NNE 4.6 mph - N/A   Overcast
9:55 PM 30.2 °F 25.4 °F 26.6 °F 86% 30.31 in 3.0 mi ENE 4.6 mph - N/A   Overcast
10:15 PM 30.2 °F - 28.4 °F 93% 30.31 in 3.0 mi Calm Calm - N/A   Overcast
10:35 PM 30.2 °F - 26.6 °F 86% 30.31 in 3.0 mi Calm Calm - N/A   Overcast
10:55 PM 30.2 °F - 28.4 °F 93% 30.31 in 3.0 mi Calm Calm - N/A   Overcast
11:15 PM 30.2 °F - 28.4 °F 93% 30.30 in 3.0 mi Calm Calm - N/A   Overcast
11:35 PM 30.2 °F 21.9 °F 28.4 °F 93% 30.32 in 4.0 mi NNE 9.2 mph - N/A   Overcast
11:55 PM 30.2 °F 21.9 °F 28.4 °F 93% 30.33 in 10.0 mi NNE 9.2 mph - N/A   Overcast